Regional Weather Roundup
Issued by NWS

Home | Current Version | Previous Version | Text Only | Print | Product List | Glossary On
Versions: 1 2 3 4 5 6 7 8 9 10 11 12 13 14 15 16 17 18 19 20 21 22 23 24 25 26 27 28 29 30 31 32 33 34 35 36 37 38 39 40 41 42 43 44 45 46 47 48 49 50
000
ASUS44 KJAN 022210
RWRMS

MISSISSIPPI HOURLY WEATHER ROUNDUP
NATIONAL WEATHER SERVICE JACKSON MS
500 PM CDT MON MAY 02 2016

NOTE: "FAIR: INDICATES FEW OR NO CLOUDS BELOW 12,000 FEET WITH NO
SIGNIFICANT WEATHER AND/OR OBSTRUCTIONS TO VISIBILITY.

MSZ001>002-007>008-010>013-018>021-025>028-034>036-022300-
NORTHWEST MISSISSIPPI

CITY           SKY/WX    TMP DP  RH WIND       PRES   REMARKS
BATESVILLE     MOCLDY    62  59  91 CALM      29.95F
CLEVELAND      MOCLDY    64  64  99 W6        29.94S
GREENWOOD      CLOUDY    65  60  84 N7        29.93F
GREENVILLE     PTSUNNY   66  59  78 MISG      29.94R
OLIVE BRANCH   CLOUDY    63  63 100 NE6       29.94F
OXFORD         CLOUDY    59  57  94 NW5       29.98F
TUNICA         CLOUDY    63  57  82 NW9       29.97R
WINONA         MOCLDY    68  63  84 W7        29.94S
$$

MSZ003>006-009-014>017-022>024-029>033-037>039-022300-
NORTHEAST MISSISSIPPI

CITY           SKY/WX    TMP DP  RH WIND       PRES   REMARKS
COLUMBUS AFB   NOT AVBL
CORINTH        CLOUDY    63  59  88 NW5       29.96R
GOLDN TRIANGLE PTSUNNY   73  64  73 NW7       29.89F
STARKVILLE     FAIR      70  68  94 CALM      29.90S
TUPELO         CLOUDY    66  61  84 NW9       29.94F
$$

MSZ040-058-022300-
CENTRAL MISSISSIPPI

CITY           SKY/WX    TMP DP  RH WIND       PRES   REMARKS
JACKSON INTL   CLOUDY    74  67  78 CALM      29.92F
JACKSON HAWKNS CLOUDY    74  66  76 VRB3      29.93F
MADISON        MOCLDY    73  68  83 CALM      29.92S
MERIDIAN KEY   CLOUDY    74  67  78 W8        29.92F
MERIDIAN NAS   PTSUNNY   73  66  78 W6        29.92F
VICKSBURG TVR  CLOUDY    70  64  81 CALM      29.94F
VICKSBURG VKS  MOCLDY    72  66  83 VRB5      29.93F
$$

MSZ059>079-022300-
SOUTH MISSISSIPPI

CITY           SKY/WX    TMP DP  RH WIND       PRES   REMARKS
BROOKHAVEN     FAIR     N/A N/A N/A CALM      29.93S
COLUMBIA       FAIR      77  66  69 W3        29.96F
HATTIESBURG    PTSUNNY   78  67  68 NW10G20   29.94R
MCCOMB         PTSUNNY   76  67  73 SE5       29.92F
NATCHEZ        CLOUDY    68  64  88 NW7       29.95S
PINE BELT      CLOUDY    73  70  88 CALM      29.95F
$$

MSZ080>082-022300-
COASTAL MISSISSIPPI

CITY           SKY/WX    TMP DP  RH WIND       PRES   REMARKS
BILOXI         NOT AVBL
PASCAGOULA     CLOUDY    78  74  87 S5        29.93F
GULFPORT       CLOUDY    78  73  84 S6        29.92F
$$



USA.gov is the U.S. government's official web portal to all federal, state and local government web resources and services.